FW0960 Weather Reports


Display with metric or nautical units.
time (UTC)temp
F
wind
direction
speed
MPH
gust
MPH
rain 1hr
in
rain 24hr
in
rain mn
in
humidity
%
barometer
mb
20260510034628 60 39 0.0 0.0 0.00 0.00 0.00 93 1011.6
20260510034123 60 39 0.0 0.0 0.00 0.00 0.00 93 1011.5
20260510033127 60 39 0.0 0.0 0.00 0.00 0.00 93 1011.4
20260510032621 60 39 0.0 0.0 0.00 0.00 0.00 93 1011.2
20260510031619 61 39 0.0 0.0 0.00 0.00 0.00 92 1011.4
20260510031124 61 39 0.0 0.0 0.00 0.00 0.00 92 1011.3
20260510030142 61 39 0.0 0.0 0.00 0.00 0.00 92 1011.2
20260510024611 61 39 0.0 0.0 0.00 0.00 0.00 92 1011.2
20260510024112 62 39 0.0 0.0 0.00 0.00 0.00 92 1011.1
20260510023108 62 39 0.0 0.0 0.00 0.00 0.00 93 1011.0
20260510022602 62 39 0.0 0.0 0.00 0.00 0.00 93 1011.1
20260510022110 62 39 0.0 0.0 0.00 0.00 0.00 93 1011.1
20260510021603 62 39 0.0 0.0 0.00 0.00 0.00 93 1011.2
20260510020559 62 39 0.0 0.0 0.00 0.00 0.00 92 1011.1
20260510015041 62 39 0.0 0.0 0.00 0.00 0.00 92 1010.9
20260510014535 63 39 0.0 0.0 0.00 0.00 0.00 91 1010.9
20260510013532 63 39 0.0 0.0 0.00 0.00 0.00 91 1010.9
20260510012529 63 39 0.0 0.0 0.00 0.00 0.00 91 1010.9
20260510012034 64 39 0.0 0.0 0.00 0.00 0.00 90 1010.9
20260510011534 64 39 0.0 0.0 0.00 0.00 0.00 90 1010.8
20260510011030 64 39 0.0 0.0 0.00 0.00 0.00 90 1010.8
20260510010531 64 39 0.0 0.0 0.00 0.00 0.00 89 1010.8
20260510010031 64 39 0.0 0.0 0.00 0.00 0.00 89 1010.8
20260510005535 65 39 0.0 0.0 0.00 0.00 0.00 89 1010.8
20260510005029 65 39 0.0 0.0 0.00 0.00 0.00 88 1010.7
20260510004031 66 39 0.0 0.0 0.00 0.00 0.00 87 1010.7
20260510003531 66 39 0.0 0.0 0.00 0.00 0.00 87 1010.6
20260510003032 66 39 0.0 0.0 0.00 0.00 0.00 86 1010.5
20260510002533 66 39 0.0 0.0 0.00 0.00 0.00 86 1010.5
20260510002047 67 39 0.0 0.0 0.00 0.00 0.00 85 1010.5
20260510001532 67 39 0.0 0.0 0.00 0.00 0.00 85 1010.5
20260510000518 67 39 0.0 0.0 0.00 0.00 0.00 84 1010.3
20260510000020 68 39 0.0 0.0 0.00 0.00 0.00 84 1010.4
20260509235520 68 39 0.0 0.0 0.00 0.00 0.00 84 1010.2
20260509234518 69 39 0.0 0.0 0.00 0.00 0.00 83 1010.3
20260509234016 69 39 0.0 0.0 0.00 0.00 0.00 82 1010.3
20260509233505 69 39 0.0 0.0 0.00 0.00 0.00 82 1010.3
20260509233014 69 39 0.0 0.0 0.00 0.00 0.00 82 1010.3
20260509232509 70 39 0.0 0.0 0.00 0.00 0.00 81 1010.1
20260509232005 70 39 0.0 0.0 0.00 0.00 0.00 80 1010.1
20260509231505 70 39 0.0 0.0 0.00 0.00 0.00 80 1010.0
20260509231002 70 39 0.0 0.0 0.00 0.00 0.00 79 1010.0
20260509230501 70 39 0.0 1.0 0.00 0.00 0.00 78 1009.9
20260509230006 71 39 0.0 1.0 0.00 0.00 0.00 78 1009.9
20260509225503 71 39 0.0 0.0 0.00 0.00 0.00 77 1009.8
20260509225003 71 39 0.0 0.0 0.00 0.00 0.00 76 1009.8
20260509224503 71 39 0.0 1.0 0.00 0.00 0.00 76 1009.8
20260509224005 71 39 0.0 1.0 0.00 0.00 0.00 76 1009.6
20260509223505 71 39 0.0 1.0 0.00 0.00 0.00 76 1009.7
20260509223003 71 39 0.0 1.0 0.00 0.00 0.00 76 1009.7
20260509222012 71 40 0.0 1.0 0.00 0.00 0.00 75 1009.8
20260509220939 72 40 0.0 1.0 0.00 0.00 0.00 75 1009.8
20260509220437 72 40 0.0 1.0 0.00 0.00 0.00 76 1009.9
20260509215440 72 43 0.0 5.0 0.00 0.00 0.00 77 1009.6
20260509214440 71 337 0.0 2.0 0.00 0.00 0.00 78 1009.6
20260509213941 71 338 0.0 2.0 0.00 0.00 0.00 77 1009.7
20260509213438 71 337 0.0 2.0 0.00 0.00 0.00 79 1009.5
20260509212939 71 336 0.0 2.0 0.00 0.00 0.00 79 1009.6
20260509212449 71 336 0.0 2.0 0.00 0.00 0.00 79 1009.6
20260509211438 71 334 0.0 2.0 0.00 0.00 0.00 80 1009.7
20260509211020 70 333 0.0 3.0 0.00 0.00 0.00 80 1009.8
20260509205936 70 334 0.0 2.0 0.00 0.00 0.00 79 1009.9
20260509205430 71 334 0.0 2.0 0.00 0.00 0.00 79 1009.9
20260509204929 71 333 0.0 2.0 0.00 0.00 0.00 79 1010.0
20260509204433 71 350 0.0 2.0 0.00 0.00 0.00 79 1010.0
20260509203427 71 355 1.0 2.0 0.00 0.00 0.00 80 1010.2
20260509202920 71 0 1.0 2.0 0.00 0.00 0.00 80 1010.3
20260509202413 71 355 0.0 2.0 0.00 0.00 0.00 82 1010.4
20260509201414 70 351 1.0 3.0 0.00 0.00 0.00 83 1010.5
20260509200906 70 348 1.0 3.0 0.00 0.00 0.00 82 1010.5
20260509200411 70 348 1.0 2.0 0.00 0.00 0.00 82 1010.6
20260509195910 70 348 0.0 2.0 0.00 0.00 0.00 84 1010.8
20260509195412 69 0 0.0 2.0 0.00 0.00 0.00 85 1010.9
20260509194914 69 340 0.0 2.0 0.00 0.00 0.00 85 1011.0
20260509193914 68 184 0.0 3.0 0.00 0.00 0.00 89 1011.1
20260509192905 66 217 0.0 4.0 0.00 0.00 0.00 90 1011.2
20260509192404 66 216 0.0 4.0 0.00 0.00 0.00 89 1011.3
20260509191904 65 223 0.0 2.0 0.00 0.00 0.00 90 1011.3
20260509191405 65 223 0.0 2.0 0.00 0.00 0.00 89 1011.4
20260509190404 65 191 0.0 2.0 0.00 0.00 0.00 90 1011.6
20260509185902 64 189 0.0 3.0 0.00 0.00 0.00 90 1011.6
20260509185406 64 86 0.0 3.0 0.00 0.00 0.00 90 1011.8
20260509184355 64 87 0.0 6.0 0.00 0.00 0.00 92 1011.9
20260509183856 64 31 0.0 1.0 0.00 0.00 0.00 92 1012.0
20260509183350 64 30 0.0 1.0 0.00 0.00 0.00 93 1012.1
20260509182352 63 32 0.0 1.0 0.00 0.00 0.00 93 1012.1
20260509181851 63 38 0.0 3.0 0.00 0.00 0.00 93 1012.2
20260509180849 62 40 0.0 1.0 0.00 0.00 0.00 93 1012.3
20260509180347 62 41 0.0 1.0 0.00 0.00 0.00 92 1012.2
20260509175349 62 42 0.0 2.0 0.00 0.00 0.00 91 1012.3
20260509174844 62 329 0.0 2.0 0.00 0.00 0.00 91 1012.3
20260509174344 62 5 0.0 2.0 0.00 0.00 0.00 89 1012.3
20260509173844 63 20 0.0 2.0 0.00 0.00 0.00 89 1012.4
20260509172846 64 345 1.0 2.0 0.00 0.00 0.00 86 1012.4
20260509172344 65 0 1.0 2.0 0.00 0.00 0.00 84 1012.5
20260509171846 66 5 1.0 2.0 0.00 0.00 0.00 82 1012.4
20260509171346 66 5 1.0 2.0 0.00 0.00 0.00 81 1012.2
20260509170847 66 20 1.0 2.0 0.00 0.00 0.00 81 1012.1
20260509165843 66 111 1.0 3.0 0.00 0.00 0.00 79 1012.4
20260509165338 67 64 0.0 2.0 0.00 0.00 0.00 80 1012.3
20260509164842 67 74 0.0 2.0 0.00 0.00 0.00 78 1012.4
20260509164340 67 82 0.0 0.0 0.00 0.00 0.00 77 1012.5
20260509163842 68 82 0.0 0.0 0.00 0.00 0.00 77 1012.5
20260509163340 69 82 0.0 0.0 0.00 0.00 0.00 76 1012.5
20260509162842 69 82 0.0 0.0 0.00 0.00 0.00 75 1012.2
20260509161836 70 82 0.0 1.0 0.00 0.00 0.00 74 1012.2
20260509161337 70 82 0.0 1.0 0.00 0.00 0.00 72 1012.2
20260509160838 70 82 0.0 1.0 0.00 0.00 0.00 71 1012.2
20260509160336 71 83 0.0 1.0 0.00 0.00 0.00 73 1012.3
20260509155833 70 86 0.0 1.0 0.00 0.00 0.00 73 1012.5
20260509155335 70 88 0.0 1.0 0.00 0.00 0.00 71 1012.7
20260509154835 71 98 0.0 1.0 0.00 0.00 0.00 70 1012.9
20260509154330 71 98 0.0 1.0 0.00 0.00 0.00 68 1013.0
20260509153834 70 101 0.0 4.0 0.00 0.00 0.00 67 1013.1
20260509153334 70 117 0.0 4.0 0.00 0.00 0.00 67 1013.2
20260509152332 70 161 0.0 3.0 0.00 0.00 0.00 66 1013.3
20260509151832 70 172 0.0 2.0 0.00 0.00 0.00 66 1013.3
20260509151329 70 178 0.0 1.0 0.00 0.00 0.00 65 1013.3
20260509150831 70 298 0.0 1.0 0.00 0.00 0.00 64 1013.4
20260509145808 70 203 1.0 3.0 0.00 0.00 0.00 64 1013.5
20260509145312 70 337 1.0 4.0 0.00 0.00 0.00 63 1013.6
20260509143817 70 261 0.0 1.0 0.00 0.00 0.00 66 1013.8
20260509142813 69 271 0.0 3.0 0.00 0.00 0.00 67 1013.6
20260509142309 69 145 0.0 3.0 0.00 0.00 0.00 66 1013.5
20260509141803 69 92 0.0 1.0 0.00 0.00 0.00 68 1013.6
20260509141303 68 136 0.0 2.0 0.00 0.00 0.00 69 1013.6
20260509140803 68 136 0.0 3.0 0.00 0.00 0.00 69 1013.6
20260509135804 67 161 0.0 2.0 0.00 0.00 0.00 70 1013.6
20260509135305 67 119 0.0 2.0 0.00 0.00 0.00 71 1013.7
20260509134804 66 130 0.0 2.0 0.00 0.00 0.00 72 1013.7
20260509134302 66 107 0.0 2.0 0.00 0.00 0.00 71 1013.8
20260509133803 66 117 0.0 3.0 0.00 0.00 0.00 72 1013.7
20260509133306 65 99 0.0 3.0 0.00 0.00 0.00 73 1013.7
20260509132809 65 163 0.0 5.0 0.00 0.00 0.00 73 1013.9
20260509131804 65 143 0.0 2.0 0.00 0.00 0.00 75 1014.0
20260509131306 64 148 0.0 2.0 0.00 0.00 0.00 76 1013.9
20260509130806 64 147 0.0 2.0 0.00 0.00 0.00 77 1013.8
20260509130308 64 150 0.0 2.0 0.00 0.00 0.00 77 1014.0
20260509125804 63 165 0.0 2.0 0.00 0.00 0.00 78 1013.9
20260509125308 63 178 0.0 2.0 0.00 0.00 0.00 78 1014.0
20260509124805 62 194 0.0 2.0 0.00 0.00 0.00 78 1014.0
20260509124312 62 189 0.0 2.0 0.00 0.00 0.00 79 1014.0
20260509123303 62 192 0.0 1.0 0.00 0.00 0.00 79 1013.9
20260509122808 62 192 0.0 2.0 0.00 0.00 0.00 79 1013.9
20260509122305 62 192 0.0 2.0 0.00 0.00 0.00 79 1013.9
20260509121301 62 166 0.0 0.0 0.00 0.00 0.00 80 1014.0
20260509120304 61 155 0.0 3.0 0.00 0.00 0.00 80 1014.1
20260509115753 61 130 0.0 3.0 0.00 0.00 0.00 80 1014.1
20260509115251 60 199 0.0 1.0 0.00 0.00 0.00 81 1014.0
20260509114314 60 251 0.0 2.0 0.00 0.00 0.00 82 1014.1
20260509113243 60 237 0.0 2.0 0.00 0.00 0.00 82 1014.1
20260509112738 60 138 0.0 4.0 0.00 0.00 0.00 82 1014.1
20260509112238 60 136 0.0 4.0 0.00 0.00 0.00 82 1014.1
20260509111739 60 135 0.0 4.0 0.00 0.00 0.00 82 1014.1
20260509111238 60 104 0.0 7.0 0.00 0.00 0.00 82 1014.2
20260509105236 59 123 0.0 2.0 0.00 0.00 0.00 82 1014.3
20260509104732 59 107 0.0 3.0 0.00 0.00 0.00 82 1014.2
20260509104238 59 103 0.0 3.0 0.00 0.00 0.00 82 1014.2
20260509103732 58 215 0.0 2.0 0.00 0.00 0.00 82 1014.2
20260509102731 58 234 0.0 3.0 0.00 0.00 0.00 82 1014.2
20260509102234 58 200 0.0 2.0 0.00 0.00 0.00 82 1014.2
20260509101732 58 208 0.0 2.0 0.00 0.00 0.00 82 1014.2
20260509100725 58 150 0.0 2.0 0.00 0.00 0.00 82 1014.1
20260509095713 58 148 0.0 2.0 0.00 0.00 0.00 81 1014.1
20260509095204 58 145 0.0 2.0 0.00 0.00 0.00 81 1014.1
20260509094208 58 121 0.0 1.0 0.00 0.00 0.00 81 1014.0
20260509093705 58 123 0.0 1.0 0.00 0.00 0.00 80 1014.0
20260509093206 58 122 0.0 1.0 0.00 0.00 0.00 80 1013.9
20260509092712 58 122 0.0 1.0 0.00 0.00 0.00 80 1013.9
20260509091711 58 123 0.0 5.0 0.00 0.00 0.00 79 1013.9
20260509085704 58 168 0.0 2.0 0.00 0.00 0.00 79 1014.0
20260509085204 58 168 0.0 2.0 0.00 0.00 0.00 79 1014.0
20260509084706 58 198 0.0 2.0 0.00 0.00 0.00 79 1014.0
20260509083703 58 202 0.0 2.0 0.00 0.00 0.00 79 1014.0
20260509082159 58 200 0.0 2.0 0.00 0.00 0.00 78 1014.1
20260509081658 58 201 0.0 2.0 0.00 0.00 0.00 78 1014.1
20260509080652 58 197 0.0 1.0 0.00 0.00 0.00 77 1014.1
20260509080157 58 195 0.0 2.0 0.00 0.00 0.00 77 1014.2
20260509075652 58 195 0.0 2.0 0.00 0.00 0.00 77 1014.2
20260509075148 57 195 0.0 2.0 0.00 0.00 0.00 77 1014.3
20260509074705 57 195 0.0 2.0 0.00 0.00 0.00 76 1014.3
20260509074149 57 196 0.0 2.0 0.00 0.00 0.00 76 1014.4
20260509073649 57 192 0.0 2.0 0.00 0.00 0.00 76 1014.5
20260509072654 57 188 0.0 2.0 0.00 0.00 0.00 76 1014.5
20260509071649 57 184 0.0 2.0 0.00 0.00 0.00 75 1014.4
20260509071147 57 184 0.0 2.0 0.00 0.00 0.00 75 1014.3
20260509070645 57 184 0.0 2.0 0.00 0.00 0.00 75 1014.4
20260509070145 56 191 0.0 2.0 0.00 0.00 0.00 75 1014.4
20260509065646 56 191 0.0 2.0 0.00 0.00 0.00 75 1014.3
20260509065147 56 174 0.0 2.0 0.00 0.00 0.00 74 1014.3
20260509064647 56 174 0.0 3.0 0.00 0.00 0.00 74 1014.4
20260509064143 56 174 0.0 3.0 0.00 0.00 0.00 74 1014.5
20260509062642 56 141 0.0 1.0 0.00 0.00 0.00 73 1014.4
20260509062149 56 142 0.0 1.0 0.00 0.00 0.00 73 1014.5
20260509061144 56 136 0.0 1.0 0.00 0.00 0.00 72 1014.4
20260509060637 56 136 0.0 1.0 0.00 0.00 0.00 71 1014.4
20260509060144 56 136 0.0 1.0 0.00 0.00 0.00 71 1014.4
20260509055640 56 132 0.0 1.0 0.00 0.00 0.00 71 1014.5
20260509055145 56 132 0.0 1.0 0.00 0.00 0.00 71 1014.6
20260509054638 56 133 0.0 2.0 0.00 0.00 0.00 71 1014.5
20260509053640 56 133 0.0 1.0 0.00 0.00 0.00 70 1014.5
20260509052635 56 133 0.0 1.0 0.00 0.00 0.00 70 1014.5
20260509052133 56 133 0.0 3.0 0.00 0.00 0.00 70 1014.6
20260509051636 56 133 0.0 3.0 0.00 0.00 0.00 70 1014.6
20260509050133 56 240 0.0 2.0 0.00 0.00 0.00 70 1014.6
20260509045633 56 238 0.0 2.0 0.00 0.00 0.00 70 1014.8
20260509045134 56 247 0.0 2.0 0.00 0.00 0.00 70 1014.7
20260509044628 56 198 0.0 2.0 0.00 0.00 0.00 70 1014.7
20260509044131 56 198 0.0 3.0 0.00 0.00 0.00 69 1014.7
20260509043623 56 198 0.0 3.0 0.00 0.00 0.00 69 1014.9
20260509043124 56 190 0.0 1.0 0.00 0.00 0.00 69 1014.9
20260509042628 56 190 0.0 1.0 0.00 0.00 0.00 69 1015.0
20260509041617 56 190 0.0 2.0 0.00 0.00 0.00 68 1015.1
20260509041120 56 189 0.0 2.0 0.00 0.00 0.00 68 1015.1
20260509040115 56 201 0.0 3.0 0.00 0.00 0.00 68 1015.1
20260509035611 56 200 0.0 3.0 0.00 0.00 0.00 68 1015.0
20260509035113 56 203 0.0 2.0 0.00 0.00 0.00 68 1015.0